Volver al catálogo

USA 40 R/B DEB

ActivoHEO
NORAD 23385·DEBRIS·🇺🇸 United States

Lanzado Aug 8, 1989 desde Cape Canaveral Space Force Station

Loading…

Próximos Pases (próximas 24 horas)

TLE

ActualizadoSource: Space-Track

Época: Sep 14, 2026, 21:47 UTC

1 23385U 89061BH  26257.90814603  .00003484  00000-0  32224-2 0  9992
2 23385  57.0071 337.1255 3052736 192.9586 157.1105  8.74422787237534

Sigue USA 40 R/B DEB en tiempo real con AllMySat

Download on the App Store